Precipitable_Water
0.44 0.48 0.52 0.58 0.63 0.65 0.63 0.65 0.64 0.64 0.64 0.65 0.65 0.63 0.64 0.64 0.64 0.66 0.69 0.72 0.74 0.72 0.70 0.69 0.69 0.64 0.60 0.60 0.58 0.59 0.56 0.55
0.46 0.48 0.53 0.58 0.62 0.62 0.60 0.59 0.62 0.63 0.63 0.61 0.60 0.60 0.61 0.60 0.62 0.63 0.66 0.68 0.70 0.69 0.66 0.65 0.65 0.61 0.59 0.59 0.58 0.56 0.55 0.57
0.46 0.50 0.54 0.58 0.59 0.60 0.59 0.62 0.65 0.67 0.67 0.67 0.66 0.65 0.64 0.63 0.63 0.62 0.65 0.66 0.67 0.69 0.66 0.63 0.63 0.61 0.59 0.58 0.57 0.55 0.55 0.58
0.49 0.51 0.54 0.58 0.60 0.61 0.64 0.65 0.66 0.68 0.70 0.71 0.71 0.70 0.68 0.64 0.62 0.60 0.63 0.66 0.67 0.68 0.66 0.64 0.64 0.64 0.61 0.60 0.58 0.55 0.51 0.55
0.49 0.52 0.56 0.60 0.64 0.67 0.66 0.68 0.70 0.71 0.72 0.70 0.68 0.66 0.63 0.65 0.63 0.60 0.60 0.66 0.66 0.66 0.65 0.65 0.64 0.64 0.65 0.63 0.63 0.60 0.58 0.53
0.52 0.56 0.60 0.65 0.66 0.67 0.71 0.73 0.74 0.76 0.77 0.75 0.72 0.69 0.65 0.62 0.59 0.57 0.58 0.62 0.65 0.65 0.66 0.66 0.68 0.67 0.66 0.67 0.64 0.58 0.56 0.53
0.59 0.63 0.68 0.69 0.72 0.74 0.75 0.75 0.74 0.75 0.76 0.75 0.71 0.67 0.63 0.58 0.56 0.54 0.54 0.56 0.58 0.61 0.64 0.66 0.66 0.65 0.64 0.65 0.63 0.60 0.60 0.60
0.61 0.63 0.68 0.71 0.72 0.73 0.73 0.73 0.70 0.72 0.70 0.68 0.67 0.63 0.60 0.56 0.53 0.52 0.51 0.51 0.51 0.52 0.56 0.57 0.62 0.64 0.67 0.68 0.66 0.67 0.68 0.67
0.65 0.69 0.69 0.71 0.71 0.71 0.70 0.70 0.68 0.69 0.67 0.60 0.59 0.57 0.54 0.52 0.51 0.49 0.47 0.46 0.46 0.50 0.53 0.59 0.63 0.66 0.70 0.66 0.66 0.67 0.66 0.62
0.68 0.69 0.70 0.70 0.69 0.68 0.68 0.66 0.64 0.62 0.57 0.55 0.54 0.52 0.47 0.45 0.45 0.45 0.44 0.45 0.47 0.52 0.55 0.58 0.61 0.65 0.65 0.65 0.64 0.61 0.57 0.54
0.66 0.67 0.69 0.69 0.68 0.68 0.68 0.67 0.63 0.61 0.57 0.53 0.50 0.46 0.42 0.42 0.41 0.42 0.43 0.46 0.49 0.51 0.52 0.54 0.57 0.58 0.55 0.51 0.47 0.45 0.44 0.44
0.66 0.69 0.71 0.69 0.69 0.67 0.64 0.63 0.61 0.56 0.53 0.52 0.47 0.42 0.38 0.39 0.40 0.41 0.43 0.46 0.47 0.47 0.49 0.49 0.46 0.44 0.42 0.40 0.38 0.37 0.35 0.32
0.67 0.69 0.70 0.68 0.67 0.66 0.62 0.60 0.56 0.52 0.52 0.49 0.45 0.41 0.37 0.35 0.36 0.38 0.42 0.43 0.47 0.43 0.40 0.39 0.38 0.38 0.37 0.35 0.32 0.30 0.27 0.24
0.64 0.67 0.66 0.66 0.67 0.65 0.58 0.56 0.52 0.52 0.50 0.46 0.41 0.38 0.35 0.36 0.38 0.40 0.42 0.44 0.43 0.43 0.43 0.40 0.39 0.38 0.36 0.33 0.30 0.26 0.24 0.23
0.65 0.65 0.62 0.63 0.64 0.58 0.52 0.48 0.49 0.49 0.46 0.43 0.40 0.38 0.37 0.39 0.40 0.42 0.46 0.47 0.47 0.44 0.41 0.39 0.38 0.34 0.29 0.26 0.25 0.22 0.21 0.21
0.62 0.64 0.59 0.61 0.60 0.52 0.50 0.48 0.49 0.47 0.44 0.43 0.42 0.41 0.40 0.41 0.46 0.49 0.49 0.48 0.45 0.43 0.40 0.37 0.34 0.31 0.26 0.23 0.22 0.21 0.21 0.20
0.60 0.59 0.56 0.57 0.55 0.53 0.54 0.51 0.47 0.46 0.44 0.44 0.47 0.50 0.50 0.51 0.50 0.48 0.47 0.48 0.47 0.41 0.36 0.32 0.29 0.23 0.23 0.23 0.22 0.21 0.20 0.18
0.58 0.57 0.56 0.55 0.54 0.56 0.52 0.47 0.45 0.44 0.45 0.47 0.49 0.51 0.49 0.49 0.48 0.45 0.38 0.36 0.35 0.31 0.29 0.25 0.20 0.20 0.21 0.22 0.21 0.20 0.18 0.18
0.54 0.53 0.56 0.55 0.56 0.51 0.46 0.46 0.46 0.48 0.44 0.42 0.42 0.41 0.39 0.39 0.38 0.35 0.32 0.29 0.27 0.23 0.21 0.21 0.21 0.21 0.21 0.20 0.19 0.18 0.18 0.20
Wind_Speed
12 12 11 11 12 14 16 18 21 22 21 23 25 27 28 30 31 31 32 33 33 33 33 33 34 33 33 33 33 34 34 35
10 10 10 11 12 14 17 19 21 22 24 25 28 29 30 31 32 33 34 34 35 35 35 36 36 36 36 35 35 35 36 36
9 9 11 12 14 17 19 21 24 26 28 29 31 33 33 34 36 36 37 37 37 37 37 37 37 38 37 37 37 36 37 36
12 13 15 16 17 19 23 26 27 30 31 33 35 36 37 38 39 39 40 40 41 41 41 41 41 41 42 41 40 38 37 36
15 16 18 19 21 24 26 28 30 32 33 35 36 37 39 42 43 43 43 42 43 44 44 44 45 44 44 43 41 41 40 39
16 18 20 23 25 27 29 30 32 33 34 35 38 41 43 45 45 45 44 44 44 45 46 46 44 43 43 42 41 40 41 41
20 21 23 24 26 27 29 30 32 34 37 39 42 44 47 48 47 46 46 46 46 46 46 45 42 40 39 39 40 41 41 42
23 25 25 26 27 28 31 33 36 38 41 43 46 48 48 47 47 48 48 48 47 45 42 39 39 39 41 42 43 44 46 47
25 24 25 25 28 32 34 36 39 43 45 47 47 47 47 48 49 48 48 46 43 41 37 36 37 40 40 42 42 44 44 44
23 24 25 28 33 36 37 40 43 45 45 45 47 48 50 50 49 48 46 43 40 38 37 37 38 39 41 43 43 43 43 44
24 25 28 33 36 38 40 43 45 45 46 47 50 52 52 50 48 45 42 40 38 36 36 37 38 38 37 38 39 40 41 42
27 30 34 37 40 42 42 45 45 47 48 51 52 53 52 48 45 42 39 38 37 37 37 36 35 35 36 38 39 40 41 43
32 35 37 40 42 43 45 45 47 48 50 52 54 55 51 46 43 41 38 36 37 35 34 33 34 35 35 36 37 38 40 41
35 38 41 43 44 44 46 47 48 49 52 55 56 55 48 43 41 39 37 36 34 34 34 34 34 34 35 36 38 38 38 39
39 40 43 42 43 44 47 47 49 52 54 55 55 51 45 41 40 37 35 34 34 34 33 33 34 35 35 36 37 38 38 38
41 43 44 44 44 45 47 48 51 54 54 54 51 46 42 38 37 37 36 35 34 33 33 34 35 36 36 36 36 36 37 39
43 43 44 44 45 47 48 51 54 53 52 49 45 42 41 39 37 34 32 32 33 33 34 34 35 35 36 35 36 37 39 40
45 43 44 45 47 48 50 54 53 51 49 46 43 41 38 36 34 33 31 31 32 34 34 34 35 35 36 36 37 38 38 38
45 44 45 46 48 50 53 52 51 47 45 42 40 38 37 34 33 33 33 32 33 34 33 34 34 35 36 37 39 38 37 36
Wind_Direction
298 293 293 295 293 297 303 309 311 312 310 311 312 312 310 305 302 299 295 293 291 289 289 287 284 283 281 280 278 278 277 277
306 307 302 300 300 300 303 310 313 314 311 310 312 312 312 310 305 300 297 294 291 289 288 287 284 282 281 279 278 278 277 277
310 310 310 304 302 302 302 306 310 311 311 309 310 311 310 310 308 303 298 295 292 290 288 286 284 282 280 278 277 277 277 275
301 301 304 305 303 302 303 304 305 307 308 308 308 308 306 307 307 303 298 294 290 288 287 285 283 280 278 278 276 274 275 275
301 299 300 300 300 303 303 304 305 307 307 307 306 307 306 306 304 303 300 295 291 287 285 284 282 280 278 277 275 274 274 274
301 300 302 303 305 306 307 308 309 310 310 311 309 308 309 308 305 303 301 298 294 289 286 283 280 278 278 274 273 275 275 274
305 309 308 309 311 312 313 313 314 313 312 311 310 309 309 309 307 305 303 301 298 294 289 284 279 277 277 273 274 275 275 275
307 307 309 310 313 314 314 314 314 314 313 312 310 309 309 308 307 305 304 301 299 296 290 283 277 277 277 275 276 276 277 276
309 310 311 311 312 314 313 314 314 314 313 313 312 311 310 309 307 305 304 301 299 296 291 285 281 280 278 279 278 277 276 277
309 309 310 311 312 311 311 312 313 314 314 315 315 313 310 309 307 306 304 301 298 294 291 287 284 282 282 280 278 279 276 277
308 308 308 310 312 311 310 313 313 313 314 315 315 314 311 309 307 305 303 301 298 295 293 291 288 286 282 281 281 281 279 279
306 306 307 309 311 313 312 312 313 313 313 314 314 314 311 308 306 305 302 299 297 296 295 293 289 288 285 284 283 283 282 282
306 307 309 309 310 311 312 311 312 313 313 313 313 313 309 306 306 305 301 299 299 296 296 295 293 291 290 288 288 287 287 286
306 307 309 308 308 309 312 312 311 312 313 314 314 313 309 305 304 305 301 299 298 297 296 295 295 294 292 292 291 291 289 288
306 307 309 309 310 310 311 312 312 313 313 314 313 313 308 305 304 304 302 299 298 298 297 297 296 296 295 294 293 292 291 290
307 306 308 308 308 310 312 312 313 313 313 314 315 313 311 306 306 303 301 299 298 299 298 298 299 298 296 295 295 294 294 293
309 308 308 308 308 309 310 313 315 315 316 316 316 315 313 309 306 306 303 301 299 299 300 300 300 300 299 297 297 296 296 295
310 309 310 310 311 311 312 314 314 315 315 314 314 313 314 310 307 305 304 302 301 301 302 301 302 301 301 300 299 299 298 297
311 310 310 310 312 312 314 314 313 314 317 316 315 314 313 311 308 307 305 304 303 303 302 303 303 303 303 302 302 301 299 299